Location: Bushey
(51.6333°N, 0.3667°W)
Time: 16:55:17
(UTC+00:00)

FALCON 9 DEB - Pass Details

Date: 03 March 2021
Orbit: 366 x 386 km, 53.0° (Epoch: 17 April)

Event Time Altitude Azimuth Distance (km) Brightness Sun altitude
Rises 19:27:45 0° 281° (W) 2,294 8.6 -16.6°
Reaches altitude 10° 19:29:50 10° 283° (WNW) 1,435 7.1 -16.9°
Maximum altitude 19:33:03 73° 9° (N) 416 2.9 -17.4°
Enters shadow 19:33:34 56° 70° (ENE) 472 2.9 -17.5°
